Preview of NWS' New Version of Forecast
This preview is not operational and should not be used for support decisions.

Regional Weather Roundup (RWR)

Issued by National Weather Service (NWS)

                            
000
ASUS42 KTBW 231019
RWRFL 
FLORIDA REGIONAL WEATHER ROUNDUP
NATIONAL WEATHER SERVICE TAMPA BAY RUSKIN FL
600 AM EDT FRI AUG 23 2019

NOTE: "FAIR" INDICATES FEW OR NO CLOUDS BELOW 12,000 FEET WITH NO
SIGNIFICANT WEATHER AND/OR OBSTRUCTIONS TO VISIBILITY.

FLZ001>010-012>015-112-114-115-231100-
PANHANDLE FLORIDA
  
CITY           SKY/WX    TMP DP  RH WIND       PRES   REMARKS
PENSACOLA      MOCLDY    79  79 100 NE3       29.98R                  
PENSACOLA NAS  FAIR      76  76 100 CALM      29.98R                  
MILTON NAS     FAIR      72  72 100 CALM      29.99R                  
CRESTVIEW      FAIR      74  72  93 E3        30.01S                  
DUKE FIELD     FAIR      75  75 100 CALM      29.99R                  
VALPARAISO     CLOUDY    76  76  97 CALM      29.98R                  
MARY ESTHER    CLEAR     76  73  92 CALM      29.97R                  
TRI COUNTY     MOCLDY    74  73  97 CALM      30.01S                  
PANAMA CITY    FAIR      77  75  93 NE5       29.99R                  
TYNDALL AFB    FAIR      77  75  95 CALM      29.98S                  
APALACHICOLA   FAIR      77  75  93 NE5       29.99R                  

STATION/POSITION SKY/WX   TEMP    WIND        PRES    WAVE   SWELL
                          AIR SEA DIR/SP/G            HT/PER HT/PER
                          (F)     (DEG/KT/KT) (MB)    (FT/S) (FT/S)
30.1N   87.6W              84 86  220/  4/  4 1015.3R   2/ 6   2/ 6
29.2N   88.2W              84 86  190/  6/  8 1015.2R   2/ 5   2/ 5
28.8N   86.0W                 85  180/  2/  4 1015.3R   1/ 6   2/ 6
PANAMA CITY BEAC           83 86  160/  6/  7 1015.9S
TOWER C                    82      CALM  /  1 1016.1R
28.5N   84.5W              83      20/  6/  6 1016.1R   1/ 6

$$
FLZ011-016>038-118-127-128-134-139-239-231100-
NORTH FLORIDA
  
CITY           SKY/WX    TMP DP  RH WIND       PRES   REMARKS
MARIANNA       FAIR      74  73  97 CALM      30.00S                  
TALLAHASSEE    MOCLDY    77  76  96 CALM      30.01R                  
PERRY            N/A     77  76  97 CALM      30.01S FOG              
LIVE OAK       CLEAR     75  75 100 CALM      30.01S                  
CROSS CITY     FAIR      77  75  94 E3        30.01S                  
LAKE CITY      FAIR      73  72  94 CALM      30.02S                  
GAINESVILLE    FAIR      72  71  97 CALM      30.04R                  
WILLISTON      FAIR      72  71  99 CALM      30.02R                  
MAYPORT NAS    FAIR      77  76  96 CALM      30.02R                  
JACKSONVILLE   FAIR      74  72  93 CALM      30.02R                  
JAX NAS        FAIR      79  75  87 CALM      30.02S                  
JAX CECIL      FAIR      72  70  94 CALM      30.02S FOG              
FERNANDINA BEA FAIR      76  75  98 MISG      30.02R                  
ST AUGUSTINE   FAIR      75  73  93 CALM      30.03R                  
PALM COAST     CLEAR     73  72  94 CALM      30.01R                  

STATION/POSITION SKY/WX   TEMP    WIND        PRES    WAVE   SWELL
                          AIR SEA DIR/SP/G            HT/PER HT/PER
                          (F)     (DEG/KT/KT) (MB)    (FT/S) (FT/S)
SHELL POINT      NOT AVBL
KEATON BEACH               77      50/  2/  3 1016.1R
CEDAR KEY                  81     130/  6/  7 1016.1S
FERNANDINA                 83 85              1017.1R
30.7N   81.3W                 84                N/A     2/11
MAYPORT                    79 83  240/  3/  3 1016.8
31.4N   80.9W              82 82  210/  6/  6 1016.5R   2/10   2/10
ST AUGUSTINE               79 81  320/  5/  5 1016.5R

$$
FLZ040-043>046-052-053-057-058-063-144-231100-
INTERIOR CENTRAL FLORIDA
  
CITY           SKY/WX    TMP DP  RH WIND       PRES   REMARKS
OCALA          FAIR      73  73 100 N3        30.02R                  
LEESBURG       FAIR      76  74  93 N3        30.01R                  
SANFORD        FAIR      77  75  93 NE5       29.99R                  
ORLANDO EXEC   FAIR      79  75  87 N3        30.00R                  
ORLANDO INTL   FAIR      77  76  96 N5        29.99R                  
KISSIMMEE      FAIR      79  76  90 N5        30.00R                  
WINTER HAVEN   FAIR      79  75  87 N5        30.01R                  
LAKELAND       CLEAR     95  73  49 N5        30.00  HX 105           
BARTOW           N/A     77  75  94 CALM      29.99R                  
SEBRING        FAIR      76  75  96 N6        29.98R                  
OKEECHOBEE     FAIR      73  73 100 N3        29.96R                  

$$
FLZ041-047-054-059-064-141-147-231100-
EAST CENTRAL FLORIDA
  
CITY           SKY/WX    TMP DP  RH WIND       PRES   REMARKS
DAYTONA BEACH  FAIR      76  74  93 CALM      30.00R                  
DELAND         FAIR      75  73  94 CALM      30.00R                  
JFK SPACE CTR  FAIR      77  56  48 E3        29.98R                  
CAPE CANAVERAL FAIR      78  78  99 CALM      29.97R                  
PATRICK AFB    FAIR      82  80  92 E9        29.97S                  
MELBOURNE      FAIR      82  75  79 NE8       29.97S                  
VERO BEACH     FAIR      79  75  87 E5        29.96R                  
FT PIERCE      FAIR      81  74  79 E6        29.96R                  
STUART         FAIR      81  73  78 E7        29.96S                  

STATION/POSITION SKY/WX   TEMP    WIND        PRES    WAVE   SWELL
                          AIR SEA DIR/SP/G            HT/PER HT/PER
                          (F)     (DEG/KT/KT) (MB)    (FT/S) (FT/S)
28.5N   80.2W              83 83   80/ 10/ 12 1015.2R   3/ 6   2/ 6
28.9N   78.5W              84     110/ 12/ 16 1016.0R   3/ 6   2/ 6
TRIDENT PIER               79 84   30/  3/  5 1016.6R
28.4N   80.5W                 82                N/A     3/ 5
27.5N   80.2W                 83                N/A     3/ 5

$$
FLZ050-056-061-142-242-148-248-149-249-151-251-155-255-
160-260-231100-
WEST CENTRAL FLORIDA
  
CITY           SKY/WX    TMP DP  RH WIND       PRES   REMARKS
CRYSTAL RIVER  FAIR      73  73 100 CALM      30.01R                  
INVERNESS      FAIR      72  72 100 CALM      30.01S FOG              
BROOKSVILLE    FAIR      71  71 100 CALM      30.01S FOG              
CLEARWATER AIR FAIR      77  73  88 CALM      29.99S                  
ST PETE CLEARW FAIR      81  75  82 NE5       29.99R                  
TAMPA INTL     FAIR      78  75  90 NE3       29.99F                  
PLANT CITY     FAIR      75  75 100 CALM      30.02S                  
MACDILL AFB    FAIR      76  74  92 NE5       29.98S                  
PETER O KNIGHT MOCLDY   N/A N/A N/A CALM      29.99S                  
ST PETERSBURG  FAIR      81  76  84 E8        29.97S                  
SARASOTA       FAIR      77  75  93 NE3       29.97R                  
VENICE         FAIR      77  77 100 NE7       29.98S                  

STATION/POSITION SKY/WX   TEMP    WIND        PRES    WAVE   SWELL
                          AIR SEA DIR/SP/G            HT/PER HT/PER
                          (F)     (DEG/KT/KT) (MB)    (FT/S) (FT/S)
27.3N   84.2W                 85                N/A     2/ 7
CLEARWATER BEACH           80 88   50/  4/  6 1015.7R
MIDDLE TAMPA BAY           80      90/  5/  6 1015.7R
VENICE                     77 86   50/  6/  7 1014.9S

$$
FLZ066-069-070-075>078-162-262-165-265-231100-
SOUTHWEST FLORIDA AND KEYS
  
CITY           SKY/WX    TMP DP  RH WIND       PRES   REMARKS
PUNTA GORDA    FAIR      76  76 100 N6        29.99R                  
FT MYERS       FAIR      77  75  93 N3        29.96R                  
SOUTHWEST INTL FAIR      77  75  93 N3        29.96R                  
NAPLES         FAIR      79  76  90 N6        29.95R                  
MARCO ISLAND   FAIR     N/A N/A N/A N5          N/A                   
IMMOKALEE        N/A    N/A N/A N/A MISG        N/A                   
MARATHON       MOCLDY    83  76  79 N5        29.92R                  
KEY WEST NAS   FAIR      85  75  72 NE6       29.93R                  
KEY WEST INTL  FAIR      83  74  74 NE5       29.94R                  

STATION/POSITION SKY/WX   TEMP    WIND        PRES    WAVE   SWELL
                          AIR SEA DIR/SP/G            HT/PER HT/PER
                          (F)     (DEG/KT/KT) (MB)    (FT/S) (FT/S)
NAPLES                     78 87              1014.3R
26.0N   85.6W              84 85   50/  4/  6 1015.0R   1/ 8   2/ 8
DRY TORTUGAS               84      20/  4/  7 1014.0R
SAND KEY                   84      50/  5/  7 1012.8
SOMBRERO KEY               83      20/  6/  8 1013.5
LONG KEY                   82                 1012.2

$$
FLZ067-068-071>074-168-172>174-231100-
SOUTHEAST FLORIDA 
  
CITY           SKY/WX    TMP DP  RH WIND       PRES   REMARKS
W PALM BEACH   MOCLDY    83  75  77 E12       29.94R                  
FT LAUDER-EXEC MOCLDY    80  75  84 E3        29.92S                  
FT LAUDERDALE  FAIR      80  75  84 E5        29.91S                  
POMPANO BEACH  FAIR      82  75  79 E5        29.92S                  
PEMBROKE PINES FAIR      80  75  84 CALM      29.93S                  
OPA LOCKA      FAIR      80  76  87 N5        29.92S                  
MIAMI          FAIR      81  74  79 N5        29.92S                  
WEST KENDALL   FAIR      79  76  90 N5        29.91S                  
HOMESTEAD      LGT RAIN  79  75  89 NW5       29.91R                  

STATION/POSITION SKY/WX   TEMP    WIND        PRES    WAVE   SWELL
                          AIR SEA DIR/SP/G            HT/PER HT/PER
                          (F)     (DEG/KT/KT) (MB)    (FT/S) (FT/S)
VIRGINIA KEY               82 88   20/  4/  6 1012.5S
LAKE WORTH                 82 85  100/ 11/ 12 1014.5R
FOWEY ROCKS                82 86   40/ 10/ 12 1013.1R
SETTLEMENT POINT           81     120/ 12/ 14 1014.3R

$$